Flag for China Weather past 2 weeks in Guangzhou, Guangdong, China

Now
91 °F

Partly sunny.


Feels Like: 108 °F
Forecast: 80 / 91 °F
Wind: 10 mph from South

Location: Canton Airport

Current Time: May 28, 2015 at 1:15:31 PM

Latest Report: May 28, 2015 at 12:30 PM


Visibility: N/A

Pressure: 29.65 "Hg

Humidity: 67%

Dew point: 79 °F

Location of GuangzhouLocation

Historic Weather in Guangzhou — Graph

°F

Guangzhou temperature yesterday

Maximum temperature yesterday: 93 °F (at 2:30 PM)
Minimum temperature yesterday: 79 °F (at 12:00 AM)
Average temperature yesterday: 85 °F

Past Weeks' High & Low Weather Summary

 TemperatureHumidityPressure
High93 °F (May 14, 1:30 PM)100% (May 16, 5:30 AM)29.89 "Hg (May 16, 5:30 AM)
Low72 °F (May 21, 11:00 PM)53% (May 14, 1:30 PM)29.62 "Hg (May 19, 2:30 PM)
Average80 °F90%29.74 "Hg
* Reported May 13 12:00 Noon — May 28 12:00 Noon, Guangzhou, Weather by CustomWeather, © 2015

Note: Actual official high and low records may vary slightly from our data, if they occured in-between our weather recording intervals... More about our weather records

Advertising

Guangzhou weather history for previous 24 hours

 ConditionsComfort  
Time TempWeatherWind HumidityBarometerVisibility
12:00 PM
Thu, May 28
91 °FPartly sunny.6 mph71%29.65 "HgN/A
11:30 AM91 °FPartly sunny.6 mph71%29.68 "HgN/A
11:00 AM90 °FPartly sunny.6 mph79%29.68 "HgN/A
10:30 AM90 °FPartly sunny.3 mph75%29.68 "HgN/A
10:00 AM88 °FBroken clouds.3 mph79%29.68 "HgN/A
9:30 AM88 °FBroken clouds.6 mph79%29.68 "HgN/A
9:00 AM88 °FBroken clouds.6 mph79%29.68 "Hg4 mi
8:30 AM86 °FPartly sunny.3 mph84%29.68 "Hg4 mi
8:00 AM86 °FScattered clouds.1 mph84%29.68 "Hg4 mi
7:30 AM84 °FScattered clouds.1 mph94%29.68 "Hg4 mi
7:00 AM84 °FSprinkles. Partly sunny.3 mph89%29.68 "Hg4 mi
6:30 AM82 °FBroken clouds.3 mph94%29.65 "Hg4 mi
6:00 AM82 °FBroken clouds.3 mph94%29.65 "Hg4 mi
5:30 AM82 °FPartly cloudy.3 mph94%29.65 "Hg4 mi
5:00 AM82 °FPartly cloudy.3 mph94%29.65 "Hg5 mi
4:30 AM82 °FPartly cloudy.6 mph94%29.65 "HgN/A
4:00 AM82 °FPassing clouds.3 mph94%29.65 "HgN/A
3:30 AM82 °FPassing clouds.1 mph89%29.65 "HgN/A
3:00 AM82 °FPassing clouds.3 mph89%29.65 "HgN/A
2:30 AM84 °FPassing clouds.3 mph89%29.65 "HgN/A
2:00 AM82 °FPassing clouds.3 mph94%29.65 "HgN/A
1:30 AM82 °FPassing clouds.3 mph94%29.65 "HgN/A
1:00 AM82 °FPassing clouds.6 mph94%29.65 "HgN/A
12:30 AM82 °FPassing clouds.3 mph94%29.68 "HgN/A
12:00 AM84 °FPassing clouds.1 mph89%29.68 "HgN/A
11:30 PM
Wed, May 27
84 °FPassing clouds.3 mph89%29.68 "HgN/A
11:00 PM84 °FPassing clouds.6 mph89%29.68 "HgN/A
10:30 PM84 °FPassing clouds.3 mph89%29.68 "HgN/A
10:00 PM84 °FPassing clouds.3 mph89%29.68 "HgN/A
9:30 PM84 °FPassing clouds.6 mph89%29.68 "HgN/A
9:00 PM86 °FPassing clouds.6 mph84%29.68 "HgN/A
8:30 PM86 °FPassing clouds.6 mph84%29.65 "HgN/A
8:00 PM86 °FPassing clouds.8 mph84%29.65 "HgN/A
7:30 PM86 °FPassing clouds.8 mph84%29.62 "HgN/A
7:00 PM86 °FLight rain. Scattered clouds.6 mph84%29.62 "HgN/A
6:30 PM88 °FLight rain. Scattered clouds.6 mph79%29.62 "HgN/A
6:00 PM88 °FScattered clouds.6 mph79%29.62 "HgN/A
5:30 PM90 °FBroken clouds.10 mph75%29.62 "HgN/A
5:00 PM90 °FBroken clouds.10 mph75%29.62 "HgN/A
4:30 PM86 °FSprinkles. Partly sunny.10 mph89%29.62 "HgN/A
4:00 PM91 °FPartly sunny.10 mph71%29.62 "HgN/A
3:30 PM93 °FPartly sunny.8 mph67%29.62 "HgN/A
3:00 PM93 °FPartly sunny.8 mph63%29.65 "HgN/A
2:30 PM93 °FPartly sunny.10 mph63%29.65 "HgN/A
2:00 PM91 °FPartly sunny.8 mph71%29.65 "HgN/A
1:30 PM91 °FPartly sunny.10 mph71%29.65 "HgN/A
1:00 PM90 °FPartly sunny.8 mph75%29.68 "HgN/A
Weather by CustomWeather, © 2015

See weather overviewHow to use our weather pages